Location: Unspecified
(47.2333°N, 39.7000°E)
Time: 21:56:11
(UTC+00:00)

ISS - Pass Details

Date: 08 July 2022
Orbit: 412 x 420 km, 51.6° (Epoch: 17 August)

Event Time Altitude Azimuth Distance (km) Brightness Sun altitude
Rises 23:42:11 0° 285° (WNW) 2,362 -0.1 -14.0°
Reaches altitude 10° 23:44:22 10° 294° (WNW) 1,500 -1.0 -13.8°
Maximum altitude 23:47:32 37° 4° (N) 665 -2.2 -13.5°
Drops below altitude 10° 23:50:43 10° 74° (ENE) 1,504 -0.2 -13.2°
Sets 23:52:52 0° 83° (E) 2,351 0.7 -13.0°
